Location: Newark
(7.0858°N, 171.3717°E)
Time: 03:04:16
(UTC+00:00)

Transit 4A - Pass Details

Date: 26 November 2020
Orbit: 864 x 980 km, 66.8° (Epoch: 20 January)

Event Time Altitude Azimuth Distance (km) Brightness Sun altitude
Rises 07:59:23 0° 325° (NW) 3,597 11.2 -25.2°
Reaches altitude 10° 08:02:07 10° 317° (NW) 2,636 10.5 -25.9°
Maximum altitude 08:07:40 37° 252° (WSW) 1,394 9.3 -27.2°
Drops below altitude 10° 08:13:05 10° 186° (S) 2,564 10.5 -28.4°
Sets 08:15:45 0° 178° (S) 3,488 11.1 -29.1°
